Flag for Angola Weather past 2 weeks in Cabinda, Angola

Now
86 °F

Partly sunny.


Feels Like: 97 °F
Forecast: 80 / 85 °F
Wind: 9 mph from Southeast

Location: Pointe Airport-Noire

Current Time: Apr 1, 2015 at 12:24:11 PM

Latest Report: Apr 1, 2015 at 11:00 AM


Visibility: N/A

Pressure: 29.92 "Hg

Humidity: 75%

Dew point: 77 °F

Location of CabindaLocation

Historic Weather in Cabinda — Graph

°F

Cabinda temperature yesterday

Maximum temperature yesterday: 88 °F (at 11:00 AM)
Minimum temperature yesterday: 77 °F (at 4:00 AM)
Average temperature yesterday: 83 °F

Past Weeks' High & Low Weather Summary

 TemperatureHumidityPressure
High91 °F (Mar 17, 12:00 PM)100% (Mar 21, 6:00 AM)29.98 "Hg (Mar 21, 6:00 AM)
Low73 °F (Mar 19, 2:00 AM)52% (Mar 17, 12:00 PM)29.68 "Hg (Mar 18, 4:00 PM)
Average82 °F85%29.83 "Hg
* Reported Mar 17 11:00 AM — Apr 1 11:00 AM, Cabinda, Weather by CustomWeather, © 2015

Note: Actual official high and low records may vary slightly from our data, if they occured in-between our weather recording intervals... More about our weather records

Advertising

Cabinda weather history for previous 24 hours

 ConditionsComfort  
Time TempWeatherWind HumidityBarometerVisibility
11:00 AM
Wed, Apr 1
86 °FPartly sunny.9 mph75%29.92 "HgN/A
10:00 AM84 °FScattered clouds.9 mph79%29.95 "HgN/A
9:00 AM82 °FPassing clouds.N/A89%29.95 "Hg5 mi
8:00 AM81 °FScattered clouds.5 mph89%29.92 "Hg4 mi
7:00 AM77 °FScattered clouds.3 mph94%29.89 "Hg5 mi
6:00 AM77 °FPassing clouds.2 mph94%29.89 "Hg5 mi
5:00 AM77 °FPassing clouds.2 mph94%29.86 "Hg5 mi
4:00 AM79 °FPassing clouds.2 mph89%29.83 "Hg5 mi
3:00 AM81 °FPassing clouds.2 mph84%29.83 "Hg5 mi
2:00 AM81 °FThunderstorms. Passing clouds.2 mph84%29.86 "Hg5 mi
1:00 AM81 °FThunderstorms. Passing clouds.2 mph84%29.86 "Hg5 mi
12:00 AM82 °FThunderstorms. Passing clouds.2 mph84%29.86 "Hg5 mi
11:00 PM
Tue, Mar 31
82 °FPassing clouds.3 mph84%29.86 "Hg5 mi
10:00 PM79 °FPassing clouds.5 mph94%29.86 "Hg5 mi
9:00 PM82 °FPassing clouds.5 mph84%29.83 "Hg5 mi
8:00 PM82 °FPassing clouds.7 mph84%29.83 "HgN/A
7:00 PM84 °FPassing clouds.7 mph79%29.80 "HgN/A
6:00 PM86 °FPassing clouds.9 mph70%29.77 "HgN/A
5:00 PM86 °FScattered clouds.10 mph70%29.77 "HgN/A
4:00 PM88 °FScattered clouds.12 mph66%29.77 "HgN/A
3:00 PM88 °FPassing clouds.12 mph66%29.77 "HgN/A
2:00 PM88 °FPassing clouds.9 mph66%29.83 "HgN/A
1:00 PM88 °FPassing clouds.9 mph66%29.86 "HgN/A
12:00 PM88 °FScattered clouds.8 mph66%29.89 "HgN/A
Weather by CustomWeather, © 2015

See weather overviewHow to use our weather pages